DLH4UA EDDF-BIKF

Flight info

Callsign DLH4UA
Flight time 3h 15m
Altitude 36000
Route OBOKA3M/25C OBOKA Z28 DIBIR DCT BUDIP DCT GODOS DCT BALIX/M079F360 DCT BREKI DCT BASLU BASLU4N
Aircraft A21N/M-SDE2E3FGIJ1LORWXYZ/HB1

Departure

Time 2026-05-04 19:49
Airport Frankfurt Main Airport (EDDF)

Arrival

Time 2026-05-04 23:04
Airport Keflavik International Airport (BIKF)
Time Latitude Longitude Altitude Speed Heading
2026-05-04 19:16 50.03651 8.52373 354 ft 0 kts 340°
2026-05-04 19:32 50.03635 8.52382 350 ft 4 kts 339°
2026-05-04 19:32 50.03610 8.52397 344 ft 4 kts 339°
2026-05-04 19:33 50.03584 8.52412 349 ft 4 kts 339°
2026-05-04 19:33 50.03577 8.52416 351 ft 0 kts 339°
2026-05-04 19:36 50.03578 8.52415 351 ft 1 kts 341°
2026-05-04 19:37 50.03596 8.52427 345 ft 4 kts 57°
2026-05-04 19:37 50.03598 8.52484 346 ft 7 kts 91°
2026-05-04 19:37 50.03595 8.52571 353 ft 9 kts 92°
2026-05-04 19:37 50.03603 8.52658 353 ft 10 kts 80°
2026-05-04 19:38 50.03629 8.52769 354 ft 11 kts 70°
2026-05-04 19:38 50.03613 8.52862 347 ft 10 kts 149°
2026-05-04 19:38 50.03573 8.52940 347 ft 8 kts 88°
2026-05-04 19:38 50.03593 8.53008 352 ft 8 kts 68°
2026-05-04 19:39 50.03619 8.53112 350 ft 12 kts 69°
2026-05-04 19:39 50.03650 8.53243 350 ft 14 kts 70°
2026-05-04 19:39 50.03684 8.53385 352 ft 15 kts 69°
2026-05-04 19:39 50.03703 8.53533 350 ft 14 kts 116°
2026-05-04 19:40 50.03623 8.53559 351 ft 13 kts 203°
2026-05-04 19:40 50.03537 8.53498 351 ft 14 kts 204°
2026-05-04 19:40 50.03476 8.53542 346 ft 11 kts 86°
2026-05-04 19:40 50.03499 8.53653 351 ft 12 kts 70°
2026-05-04 19:41 50.03532 8.53791 352 ft 16 kts 69°
2026-05-04 19:41 50.03573 8.53963 348 ft 17 kts 70°
2026-05-04 19:41 50.03615 8.54139 354 ft 18 kts 69°
2026-05-04 19:41 50.03657 8.54312 347 ft 17 kts 69°
2026-05-04 19:42 50.03697 8.54483 353 ft 16 kts 70°
2026-05-04 19:42 50.03736 8.54644 348 ft 17 kts 70°
2026-05-04 19:42 50.03782 8.54838 356 ft 21 kts 69°
2026-05-04 19:42 50.03834 8.55054 360 ft 14 kts 70°
2026-05-04 19:43 50.03876 8.55227 354 ft 22 kts 69°
2026-05-04 19:43 50.03932 8.55462 359 ft 23 kts 70°
2026-05-04 19:43 50.03987 8.55694 352 ft 22 kts 69°
2026-05-04 19:43 50.04037 8.55903 361 ft 18 kts 70°
2026-05-04 19:44 50.04079 8.56079 362 ft 17 kts 70°
2026-05-04 19:44 50.04121 8.56252 361 ft 18 kts 70°
2026-05-04 19:44 50.04164 8.56434 361 ft 17 kts 70°
2026-05-04 19:44 50.04193 8.56553 367 ft 3 kts 69°
2026-05-04 19:45 50.04194 8.56557 358 ft 3 kts 69°
2026-05-04 19:45 50.04212 8.56633 365 ft 12 kts 70°
2026-05-04 19:45 50.04248 8.56784 366 ft 15 kts 69°
2026-05-04 19:46 50.04286 8.56943 366 ft 17 kts 70°
2026-05-04 19:46 50.04326 8.57110 367 ft 16 kts 70°
2026-05-04 19:46 50.04365 8.57277 368 ft 17 kts 70°
2026-05-04 19:46 50.04406 8.57447 368 ft 17 kts 70°
2026-05-04 19:47 50.04445 8.57613 371 ft 15 kts 69°
2026-05-04 19:47 50.04480 8.57759 370 ft 14 kts 69°
2026-05-04 19:47 50.04514 8.57899 373 ft 14 kts 70°
2026-05-04 19:47 50.04526 8.58058 367 ft 14 kts 125°
2026-05-04 19:48 50.04451 8.58109 374 ft 14 kts 160°
2026-05-04 19:48 50.04370 8.58104 375 ft 13 kts 243°
2026-05-04 19:48 50.04328 8.57927 368 ft 33 kts 250°
2026-05-04 19:48 50.04175 8.57277 369 ft 93 kts 248°
2026-05-04 19:49 50.03871 8.56007 362 ft 156 kts 248°
2026-05-04 19:49 50.03443 8.54212 545 ft 185 kts 250°
2026-05-04 19:49 50.02996 8.52360 1308 ft 185 kts 249°
2026-05-04 19:49 50.02460 8.50540 2078 ft 188 kts 239°
2026-05-04 19:50 50.01570 8.48928 2416 ft 209 kts 218°
2026-05-04 19:50 50.00172 8.47934 2589 ft 237 kts 194°
2026-05-04 19:50 49.98504 8.47495 3122 ft 248 kts 188°
2026-05-04 19:50 49.96782 8.47148 3879 ft 250 kts 190°
2026-05-04 19:51 49.95078 8.46569 4657 ft 251 kts 195°
2026-05-04 19:51 49.93409 8.45843 5434 ft 253 kts 197°
2026-05-04 19:51 49.91762 8.44774 6206 ft 255 kts 216°
2026-05-04 19:51 49.90565 8.42810 6742 ft 257 kts 236°
2026-05-04 19:52 49.89609 8.40458 6939 ft 259 kts 239°
2026-05-04 19:52 49.88814 8.37955 6959 ft 259 kts 253°
2026-05-04 19:52 49.88593 8.35183 7225 ft 262 kts 271°
2026-05-04 19:52 49.88709 8.32348 7991 ft 264 kts 274°
2026-05-04 19:53 49.88872 8.29515 8818 ft 264 kts 275°
2026-05-04 19:53 49.89245 8.26710 9553 ft 268 kts 291°
2026-05-04 19:53 49.90156 8.24162 10262 ft 272 kts 303°
2026-05-04 19:53 49.91272 8.21779 10982 ft 274 kts 306°
2026-05-04 19:54 49.92424 8.19409 11692 ft 276 kts 306°
2026-05-04 19:54 49.93595 8.17031 12397 ft 279 kts 308°
2026-05-04 19:54 49.94953 8.14852 13097 ft 282 kts 316°
2026-05-04 19:54 49.96447 8.12812 13606 ft 294 kts 317°
2026-05-04 19:55 49.98039 8.10698 14043 ft 305 kts 317°
2026-05-04 19:55 49.99689 8.08499 14409 ft 321 kts 317°
2026-05-04 19:55 50.01430 8.06172 14671 ft 339 kts 317°
2026-05-04 19:55 50.03349 8.03864 14922 ft 357 kts 324°
2026-05-04 19:56 50.05486 8.01736 15330 ft 368 kts 326°
2026-05-04 19:56 50.07605 7.99650 16222 ft 362 kts 326°
2026-05-04 19:56 50.09737 7.97567 17014 ft 362 kts 326°
2026-05-04 19:56 50.11883 7.95488 17641 ft 365 kts 327°
2026-05-04 19:57 50.14051 7.93397 18239 ft 369 kts 327°
2026-05-04 19:57 50.16244 7.91290 18817 ft 371 kts 327°
2026-05-04 19:57 50.18461 7.89164 19366 ft 375 kts 327°
2026-05-04 19:57 50.20691 7.87025 19816 ft 378 kts 327°
2026-05-04 19:58 50.22939 7.84867 19967 ft 379 kts 327°
2026-05-04 19:58 50.25199 7.82694 19981 ft 380 kts 327°
2026-05-04 19:58 50.27449 7.80527 19987 ft 381 kts 327°
2026-05-04 19:58 50.29714 7.78341 20311 ft 384 kts 327°
2026-05-04 19:59 50.31991 7.76142 20874 ft 385 kts 326°
2026-05-04 19:59 50.34178 7.73742 21200 ft 393 kts 321°
2026-05-04 19:59 50.36354 7.71039 21394 ft 404 kts 319°
2026-05-04 19:59 50.38544 7.68182 21580 ft 415 kts 318°
2026-05-04 20:00 50.40763 7.65196 21754 ft 425 kts 317°
2026-05-04 20:00 50.43022 7.62108 21936 ft 434 kts 317°
2026-05-04 20:00 50.45318 7.58954 22095 ft 443 kts 317°
2026-05-04 20:00 50.47658 7.55738 22292 ft 451 kts 317°
2026-05-04 20:01 50.50034 7.52476 22597 ft 455 kts 317°
2026-05-04 20:01 50.52427 7.49195 22945 ft 457 kts 317°
2026-05-04 20:01 50.54828 7.45903 23289 ft 460 kts 317°
2026-05-04 20:01 50.57251 7.42580 23634 ft 463 kts 317°
2026-05-04 20:02 50.58860 7.40371 23867 ft 464 kts 317°
2026-05-04 20:02 50.61299 7.37019 24209 ft 467 kts 317°
2026-05-04 20:02 50.63750 7.33644 24564 ft 469 kts 317°
2026-05-04 20:02 50.66207 7.30253 24919 ft 471 kts 317°
2026-05-04 20:03 50.68672 7.26850 25339 ft 470 kts 317°
2026-05-04 20:03 50.71129 7.23454 25865 ft 468 kts 317°
2026-05-04 20:03 50.73574 7.20070 26345 ft 466 kts 317°
2026-05-04 20:03 50.76007 7.16698 26777 ft 465 kts 316°
2026-05-04 20:04 50.78428 7.13333 27193 ft 463 kts 316°
2026-05-04 20:04 50.80852 7.09964 27577 ft 462 kts 316°
2026-05-04 20:04 50.83259 7.06611 27961 ft 462 kts 316°
2026-05-04 20:04 50.85670 7.03248 28351 ft 460 kts 316°
2026-05-04 20:05 50.88063 6.99905 28724 ft 459 kts 316°
2026-05-04 20:05 50.90454 6.96560 29094 ft 458 kts 316°
2026-05-04 20:05 50.92834 6.93223 29440 ft 457 kts 316°
2026-05-04 20:05 50.95187 6.89921 29766 ft 456 kts 316°
2026-05-04 20:06 50.97559 6.86585 30099 ft 455 kts 316°
2026-05-04 20:06 50.99926 6.83255 30431 ft 454 kts 316°
2026-05-04 20:06 51.02290 6.79925 30737 ft 453 kts 316°
2026-05-04 20:06 51.04643 6.76605 31014 ft 453 kts 315°
2026-05-04 20:07 51.06997 6.73279 31282 ft 452 kts 315°
2026-05-04 20:07 51.09352 6.69947 31547 ft 451 kts 315°
2026-05-04 20:07 51.11701 6.66619 31811 ft 451 kts 315°
2026-05-04 20:07 51.14042 6.63298 32060 ft 451 kts 315°
2026-05-04 20:08 51.16380 6.59974 32314 ft 450 kts 315°
2026-05-04 20:08 51.18712 6.56653 32544 ft 449 kts 315°
2026-05-04 20:08 51.21038 6.53338 32735 ft 449 kts 315°
2026-05-04 20:08 51.23371 6.50009 32942 ft 449 kts 315°
2026-05-04 20:09 51.25697 6.46685 33176 ft 448 kts 315°
2026-05-04 20:09 51.28014 6.43370 33360 ft 448 kts 315°
2026-05-04 20:09 51.30332 6.40046 33558 ft 447 kts 314°
2026-05-04 20:09 51.32649 6.36719 33748 ft 447 kts 314°
2026-05-04 20:10 51.34932 6.33439 33929 ft 446 kts 314°
2026-05-04 20:10 51.37268 6.30077 34088 ft 447 kts 314°
2026-05-04 20:10 51.39550 6.26789 34259 ft 446 kts 314°
2026-05-04 20:10 51.41854 6.23463 34423 ft 446 kts 314°
2026-05-04 20:11 51.44160 6.20131 34583 ft 446 kts 314°
2026-05-04 20:11 51.46456 6.16808 34750 ft 445 kts 314°
2026-05-04 20:11 51.48755 6.13474 34889 ft 445 kts 314°
2026-05-04 20:11 51.51054 6.10137 35017 ft 445 kts 314°
2026-05-04 20:12 51.53347 6.06803 35129 ft 445 kts 314°
2026-05-04 20:12 51.55640 6.03464 35272 ft 445 kts 314°
2026-05-04 20:12 51.57930 6.00125 35400 ft 444 kts 314°
2026-05-04 20:13 51.62518 5.93425 35571 ft 446 kts 314°
2026-05-04 20:13 51.64813 5.90065 35674 ft 446 kts 314°
2026-05-04 20:13 51.67111 5.86695 35793 ft 446 kts 314°
2026-05-04 20:14 51.71705 5.79948 35939 ft 448 kts 315°
2026-05-04 20:14 51.76326 5.73139 35961 ft 450 kts 315°
2026-05-04 20:15 51.80909 5.66365 35971 ft 449 kts 314°
2026-05-04 20:15 51.85520 5.59530 35971 ft 449 kts 314°
2026-05-04 20:16 51.90120 5.52693 35970 ft 449 kts 314°
2026-05-04 20:16 51.94714 5.45847 35971 ft 448 kts 314°
2026-05-04 20:17 51.99299 5.38991 35971 ft 449 kts 314°
2026-05-04 20:17 52.03883 5.32118 35983 ft 448 kts 314°
2026-05-04 20:18 52.08457 5.25240 35979 ft 448 kts 314°
2026-05-04 20:18 52.13026 5.18348 35981 ft 448 kts 314°
2026-05-04 20:19 52.17563 5.11485 35990 ft 447 kts 314°
2026-05-04 20:19 52.22123 5.04568 35995 ft 448 kts 315°
2026-05-04 20:20 52.26676 4.97641 35988 ft 447 kts 314°
2026-05-04 20:20 52.31226 4.90695 35987 ft 448 kts 314°
2026-05-04 20:21 52.35767 4.83740 35987 ft 447 kts 314°
2026-05-04 20:21 52.42583 4.73273 35996 ft 448 kts 314°
2026-05-04 20:22 52.47122 4.66280 36002 ft 448 kts 314°
2026-05-04 20:22 52.51657 4.59268 35995 ft 448 kts 314°
2026-05-04 20:23 52.56186 4.52242 36004 ft 447 kts 314°
2026-05-04 20:23 52.60682 4.45249 36007 ft 448 kts 314°
2026-05-04 20:24 52.65173 4.38244 36016 ft 448 kts 314°
2026-05-04 20:24 52.69686 4.31178 36018 ft 447 kts 314°
2026-05-04 20:25 52.74198 4.24093 36017 ft 447 kts 314°
2026-05-04 20:25 52.78698 4.17006 36027 ft 447 kts 314°
2026-05-04 20:26 52.83197 4.09900 36027 ft 447 kts 314°
2026-05-04 20:26 52.87695 4.02773 36036 ft 447 kts 314°
2026-05-04 20:27 52.92179 3.95650 36036 ft 447 kts 314°
2026-05-04 20:27 52.96665 3.88503 36049 ft 447 kts 314°
2026-05-04 20:28 53.01148 3.81337 36055 ft 447 kts 314°
2026-05-04 20:28 53.05626 3.74159 36054 ft 447 kts 314°
2026-05-04 20:29 53.10063 3.67023 36064 ft 446 kts 314°
2026-05-04 20:29 53.14525 3.59825 36072 ft 446 kts 314°
2026-05-04 20:30 53.18983 3.52610 36064 ft 446 kts 314°
2026-05-04 20:30 53.23434 3.45387 36061 ft 446 kts 314°
2026-05-04 20:31 53.27783 3.37997 36058 ft 446 kts 311°
2026-05-04 20:31 53.31967 3.30427 36057 ft 445 kts 311°
2026-05-04 20:32 53.36159 3.22766 36046 ft 445 kts 311°
2026-05-04 20:32 53.40354 3.15131 36046 ft 445 kts 311°
2026-05-04 20:33 53.44560 3.07489 36048 ft 445 kts 311°
2026-05-04 20:33 53.48760 2.99837 36043 ft 445 kts 311°
2026-05-04 20:34 53.52926 2.92226 36049 ft 445 kts 311°
2026-05-04 20:34 53.57114 2.84545 36050 ft 446 kts 311°
2026-05-04 20:35 53.61298 2.76845 36042 ft 446 kts 311°
2026-05-04 20:35 53.65481 2.69128 36054 ft 446 kts 311°
2026-05-04 20:36 53.69671 2.61373 36036 ft 446 kts 311°
2026-05-04 20:36 53.73821 2.53662 36037 ft 446 kts 311°
2026-05-04 20:37 53.77993 2.45889 36041 ft 446 kts 311°
2026-05-04 20:37 53.82158 2.38107 36040 ft 446 kts 311°
2026-05-04 20:38 53.86319 2.30306 36048 ft 446 kts 311°
2026-05-04 20:38 53.90468 2.22502 36042 ft 446 kts 311°
2026-05-04 20:39 53.94588 2.14728 36048 ft 446 kts 311°
2026-05-04 20:39 53.98730 2.06887 36051 ft 446 kts 311°
2026-05-04 20:40 54.02866 1.99030 36050 ft 446 kts 311°
2026-05-04 20:40 54.06995 1.91161 36038 ft 446 kts 311°
2026-05-04 20:41 54.11120 1.83276 36037 ft 446 kts 311°
2026-05-04 20:41 54.15236 1.75379 36037 ft 445 kts 311°
2026-05-04 20:42 54.19347 1.67468 36036 ft 445 kts 311°
2026-05-04 20:42 54.23451 1.59553 36045 ft 445 kts 311°
2026-05-04 20:43 54.27548 1.51623 36054 ft 444 kts 311°
2026-05-04 20:43 54.31603 1.43743 36049 ft 444 kts 311°
2026-05-04 20:44 54.35676 1.35800 36036 ft 443 kts 310°
2026-05-04 20:44 54.39739 1.27854 36038 ft 443 kts 310°
2026-05-04 20:45 54.43796 1.19899 36052 ft 442 kts 310°
2026-05-04 20:45 54.47837 1.11941 36047 ft 442 kts 310°
2026-05-04 20:46 54.51877 1.03964 36040 ft 441 kts 310°
2026-05-04 20:46 54.55907 0.95987 36049 ft 441 kts 310°
2026-05-04 20:47 54.59928 0.87989 36047 ft 441 kts 310°
2026-05-04 20:47 54.63943 0.79976 36054 ft 441 kts 310°
2026-05-04 20:48 54.67956 0.71945 36047 ft 441 kts 310°
2026-05-04 20:48 54.71955 0.63914 36036 ft 441 kts 310°
2026-05-04 20:49 54.75282 0.57213 36053 ft 441 kts 310°
2026-05-04 20:49 54.79274 0.49154 36036 ft 441 kts 310°
2026-05-04 20:50 54.83264 0.41071 36035 ft 440 kts 310°
2026-05-04 20:50 54.87238 0.32991 36036 ft 440 kts 310°
2026-05-04 20:51 54.91206 0.24895 36037 ft 439 kts 310°
2026-05-04 20:51 54.95138 0.16849 36035 ft 439 kts 309°
2026-05-04 20:52 54.99087 0.08739 36035 ft 439 kts 309°
2026-05-04 20:52 55.03031 0.00612 36036 ft 439 kts 309°
2026-05-04 20:53 55.06965 -0.07521 36039 ft 438 kts 309°
2026-05-04 20:53 55.10884 -0.15653 36054 ft 437 kts 309°
2026-05-04 20:54 55.14790 -0.23787 36052 ft 436 kts 309°
2026-05-04 20:54 55.18696 -0.31941 36035 ft 437 kts 309°
2026-05-04 20:55 55.22591 -0.40100 36034 ft 437 kts 309°
2026-05-04 20:55 55.26458 -0.48226 36028 ft 436 kts 309°
2026-05-04 20:56 55.30338 -0.56409 36027 ft 436 kts 309°
2026-05-04 20:56 55.34239 -0.64661 36027 ft 436 kts 309°
2026-05-04 20:57 55.38079 -0.72816 36027 ft 436 kts 309°
2026-05-04 20:57 55.41936 -0.81040 36026 ft 435 kts 309°
2026-05-04 20:58 55.45786 -0.89273 36018 ft 435 kts 308°
2026-05-04 20:58 55.49626 -0.97511 36018 ft 435 kts 308°
2026-05-04 20:59 55.53462 -1.05767 36018 ft 435 kts 308°
2026-05-04 20:59 55.57285 -1.14030 36018 ft 434 kts 308°
2026-05-04 21:00 55.61102 -1.22300 36017 ft 434 kts 308°
2026-05-04 21:00 55.64912 -1.30580 36017 ft 433 kts 308°
2026-05-04 21:01 55.68713 -1.38876 36018 ft 433 kts 308°
2026-05-04 21:01 55.72502 -1.47170 36017 ft 433 kts 308°
2026-05-04 21:02 55.76284 -1.55477 36014 ft 432 kts 308°
2026-05-04 21:02 55.80059 -1.63798 36005 ft 432 kts 307°
2026-05-04 21:03 55.83792 -1.72060 36019 ft 431 kts 308°
2026-05-04 21:03 55.87538 -1.80374 36017 ft 430 kts 307°
2026-05-04 21:04 55.91275 -1.88700 36017 ft 430 kts 307°
2026-05-04 21:04 55.95002 -1.97030 36018 ft 429 kts 307°
2026-05-04 21:05 55.98726 -2.05378 36017 ft 430 kts 307°
2026-05-04 21:05 56.02441 -2.13744 36018 ft 430 kts 307°
2026-05-04 21:06 56.06152 -2.22121 36017 ft 429 kts 307°
2026-05-04 21:06 56.09831 -2.30456 36017 ft 429 kts 307°
2026-05-04 21:07 56.13532 -2.38875 36026 ft 429 kts 307°
2026-05-04 21:07 56.17220 -2.47288 36026 ft 429 kts 307°
2026-05-04 21:08 56.20909 -2.55736 36026 ft 429 kts 307°
2026-05-04 21:08 56.24582 -2.64175 36027 ft 429 kts 307°
2026-05-04 21:09 56.28258 -2.72647 36027 ft 429 kts 307°
2026-05-04 21:09 56.31921 -2.81121 36019 ft 429 kts 307°
2026-05-04 21:10 56.35570 -2.89596 36018 ft 428 kts 306°
2026-05-04 21:10 56.39217 -2.98092 36018 ft 428 kts 306°
2026-05-04 21:11 56.42842 -3.06562 36001 ft 428 kts 306°
2026-05-04 21:11 56.46475 -3.15089 35997 ft 428 kts 306°
2026-05-04 21:12 56.50101 -3.23628 35997 ft 428 kts 306°
2026-05-04 21:12 56.53727 -3.32197 36000 ft 428 kts 306°
2026-05-04 21:13 56.57342 -3.40772 35994 ft 428 kts 306°
2026-05-04 21:13 56.60957 -3.49371 36001 ft 428 kts 306°
2026-05-04 21:14 56.64560 -3.57975 36007 ft 428 kts 306°
2026-05-04 21:14 56.68159 -3.66599 36008 ft 428 kts 306°
2026-05-04 21:15 56.71750 -3.75238 36004 ft 428 kts 306°
2026-05-04 21:15 56.75314 -3.83843 36006 ft 428 kts 306°
2026-05-04 21:16 56.78896 -3.92524 36010 ft 428 kts 306°
2026-05-04 21:16 56.82466 -4.01202 36018 ft 428 kts 306°
2026-05-04 21:17 56.86031 -4.09899 36018 ft 427 kts 306°
2026-05-04 21:17 56.89587 -4.18606 36027 ft 427 kts 305°
2026-05-04 21:18 56.93139 -4.27336 36026 ft 427 kts 305°
2026-05-04 21:18 56.96682 -4.36074 36034 ft 427 kts 305°
2026-05-04 21:19 57.00197 -4.44777 36033 ft 426 kts 305°
2026-05-04 21:19 57.03722 -4.53534 36034 ft 427 kts 305°
2026-05-04 21:20 57.07249 -4.62332 36037 ft 427 kts 305°
2026-05-04 21:20 57.10763 -4.71127 36034 ft 427 kts 305°
2026-05-04 21:21 57.14277 -4.79948 36037 ft 427 kts 305°
2026-05-04 21:21 57.17775 -4.88773 36033 ft 427 kts 305°
2026-05-04 21:22 57.21254 -4.97576 36034 ft 426 kts 305°
2026-05-04 21:22 57.24747 -5.06439 36051 ft 426 kts 304°
2026-05-04 21:23 57.28224 -5.15304 36036 ft 426 kts 304°
2026-05-04 21:23 57.31695 -5.24185 36037 ft 426 kts 304°
2026-05-04 21:24 57.35160 -5.33089 36036 ft 426 kts 304°
2026-05-04 21:24 57.38615 -5.42000 36034 ft 426 kts 304°
2026-05-04 21:25 57.42046 -5.50874 36034 ft 425 kts 304°
2026-05-04 21:25 57.45488 -5.59805 36036 ft 425 kts 304°
2026-05-04 21:26 57.48921 -5.68761 36044 ft 425 kts 304°
2026-05-04 21:26 57.52344 -5.77717 36059 ft 425 kts 304°
2026-05-04 21:27 57.55767 -5.86701 36055 ft 424 kts 304°
2026-05-04 21:27 57.59174 -5.95677 36048 ft 424 kts 304°
2026-05-04 21:28 57.62572 -6.04662 36050 ft 424 kts 304°
2026-05-04 21:28 57.65966 -6.13673 36047 ft 424 kts 304°
2026-05-04 21:29 57.69328 -6.22633 36056 ft 424 kts 304°
2026-05-04 21:29 57.72706 -6.31670 36059 ft 424 kts 304°
2026-05-04 21:30 57.76074 -6.40717 36056 ft 424 kts 303°
2026-05-04 21:30 57.79437 -6.49788 36053 ft 424 kts 303°
2026-05-04 21:31 57.84477 -6.63435 36046 ft 424 kts 303°
2026-05-04 21:32 57.87832 -6.72565 36055 ft 425 kts 303°
2026-05-04 21:32 57.91183 -6.81723 36057 ft 425 kts 303°
2026-05-04 21:33 57.94526 -6.90892 36061 ft 425 kts 303°
2026-05-04 21:33 57.97862 -7.00072 36055 ft 425 kts 303°
2026-05-04 21:34 58.01174 -7.09224 36054 ft 425 kts 303°
2026-05-04 21:34 58.04493 -7.18434 36063 ft 424 kts 303°
2026-05-04 21:35 58.07801 -7.27648 36066 ft 424 kts 303°
2026-05-04 21:35 58.11099 -7.36865 36060 ft 423 kts 303°
2026-05-04 21:36 58.14399 -7.46127 36060 ft 424 kts 303°
2026-05-04 21:36 58.17687 -7.55389 36063 ft 424 kts 303°
2026-05-04 21:37 58.20969 -7.64674 36065 ft 424 kts 303°
2026-05-04 21:37 58.24229 -7.73929 36066 ft 424 kts 303°
2026-05-04 21:38 58.26970 -7.81737 36081 ft 424 kts 302°
2026-05-04 21:38 58.30765 -7.92595 36084 ft 425 kts 302°
2026-05-04 21:39 58.33494 -8.00435 36082 ft 424 kts 302°
2026-05-04 21:39 58.36746 -8.09811 36082 ft 424 kts 302°
2026-05-04 21:40 58.39991 -8.19198 36083 ft 424 kts 302°
2026-05-04 21:40 58.43231 -8.28609 36082 ft 424 kts 302°
2026-05-04 21:41 58.46458 -8.38025 36082 ft 424 kts 302°
2026-05-04 21:41 58.49657 -8.47396 36082 ft 424 kts 302°
2026-05-04 21:42 58.52874 -8.56857 36081 ft 424 kts 302°
2026-05-04 21:42 58.56081 -8.66321 36083 ft 424 kts 302°
2026-05-04 21:43 58.59284 -8.75814 36082 ft 424 kts 302°
2026-05-04 21:43 58.62481 -8.85327 36082 ft 424 kts 302°
2026-05-04 21:44 58.65665 -8.94845 36082 ft 423 kts 302°
2026-05-04 21:44 58.68843 -9.04375 36081 ft 423 kts 302°
2026-05-04 21:45 58.72010 -9.13919 36082 ft 423 kts 302°
2026-05-04 21:45 58.75170 -9.23480 36082 ft 423 kts 301°
2026-05-04 21:46 58.78326 -9.33059 36081 ft 423 kts 301°
2026-05-04 21:46 58.81457 -9.42601 36082 ft 423 kts 301°
2026-05-04 21:47 58.84597 -9.52214 36084 ft 423 kts 301°
2026-05-04 21:47 58.87731 -9.61845 36082 ft 423 kts 301°
2026-05-04 21:48 58.90864 -9.71513 36082 ft 423 kts 301°
2026-05-04 21:48 58.93980 -9.81179 36081 ft 423 kts 301°
2026-05-04 21:49 58.97093 -9.90868 36083 ft 423 kts 301°
2026-05-04 21:49 59.00343 -10.00383 36081 ft 423 kts 308°
2026-05-04 21:50 59.04123 -10.09160 36084 ft 424 kts 309°
2026-05-04 21:50 59.08003 -10.17803 36081 ft 424 kts 310°
2026-05-04 21:51 59.11899 -10.26439 36082 ft 424 kts 310°
2026-05-04 21:51 59.15754 -10.35050 36084 ft 424 kts 310°
2026-05-04 21:52 59.19623 -10.43743 36083 ft 424 kts 310°
2026-05-04 21:52 59.23481 -10.52445 36081 ft 423 kts 309°
2026-05-04 21:53 59.27328 -10.61155 36081 ft 424 kts 309°
2026-05-04 21:53 59.31172 -10.69899 36090 ft 423 kts 309°
2026-05-04 21:54 59.35010 -10.78659 36092 ft 423 kts 309°
2026-05-04 21:54 59.38841 -10.87437 36091 ft 424 kts 309°
2026-05-04 21:55 59.42666 -10.96235 36091 ft 424 kts 309°
2026-05-04 21:55 59.46485 -11.05051 36092 ft 423 kts 309°
2026-05-04 21:56 59.50299 -11.13891 36091 ft 424 kts 309°
2026-05-04 21:56 59.54110 -11.22755 36091 ft 423 kts 309°
2026-05-04 21:57 59.57886 -11.31572 36092 ft 424 kts 309°
2026-05-04 21:57 59.61686 -11.40481 36090 ft 423 kts 309°
2026-05-04 21:58 59.65477 -11.49399 36091 ft 423 kts 309°
2026-05-04 21:58 59.69266 -11.58349 36091 ft 423 kts 309°
2026-05-04 21:59 59.73015 -11.67238 36092 ft 422 kts 309°
2026-05-04 21:59 59.76780 -11.76204 36092 ft 423 kts 309°
2026-05-04 22:00 59.80533 -11.85175 36092 ft 422 kts 308°
2026-05-04 22:00 59.84280 -11.94163 36090 ft 422 kts 308°
2026-05-04 22:01 59.88026 -12.03184 36092 ft 422 kts 308°
2026-05-04 22:01 59.91757 -12.12203 36091 ft 422 kts 308°
2026-05-04 22:02 59.95488 -12.21259 36092 ft 422 kts 308°
2026-05-04 22:02 59.99212 -12.30332 36091 ft 422 kts 308°
2026-05-04 22:03 60.02932 -12.39438 36091 ft 423 kts 308°
2026-05-04 22:03 60.06619 -12.48495 36099 ft 422 kts 308°
2026-05-04 22:04 60.10323 -12.57627 36100 ft 422 kts 308°
2026-05-04 22:04 60.14015 -12.66765 36101 ft 422 kts 308°
2026-05-04 22:05 60.17704 -12.75934 36100 ft 422 kts 308°
2026-05-04 22:05 60.21386 -12.85124 36102 ft 422 kts 308°
2026-05-04 22:06 60.25064 -12.94337 36101 ft 422 kts 308°
2026-05-04 22:06 60.28732 -13.03552 36099 ft 421 kts 308°
2026-05-04 22:07 60.32365 -13.12729 36102 ft 421 kts 308°
2026-05-04 22:07 60.36014 -13.21984 36102 ft 421 kts 307°
2026-05-04 22:08 60.39661 -13.31268 36100 ft 422 kts 307°
2026-05-04 22:08 60.43306 -13.40582 36102 ft 421 kts 307°
2026-05-04 22:09 60.46940 -13.49909 36101 ft 422 kts 307°
2026-05-04 22:09 60.50577 -13.59277 36101 ft 421 kts 307°
2026-05-04 22:10 60.54176 -13.68580 36101 ft 421 kts 307°
2026-05-04 22:10 60.57788 -13.77964 36100 ft 421 kts 307°
2026-05-04 22:11 60.61399 -13.87385 36109 ft 422 kts 307°
2026-05-04 22:11 60.65002 -13.96820 36105 ft 422 kts 307°
2026-05-04 22:12 60.68601 -14.06279 36109 ft 421 kts 307°
2026-05-04 22:12 60.72192 -14.15752 36110 ft 422 kts 307°
2026-05-04 22:13 60.75775 -14.25255 36111 ft 422 kts 307°
2026-05-04 22:13 60.79324 -14.34706 36110 ft 422 kts 307°
2026-05-04 22:14 60.82894 -14.44245 36120 ft 421 kts 307°
2026-05-04 22:14 60.86453 -14.53801 36183 ft 421 kts 307°
2026-05-04 22:15 60.90023 -14.63419 36184 ft 426 kts 307°
2026-05-04 22:15 60.93589 -14.73064 36183 ft 422 kts 306°
2026-05-04 22:16 60.97132 -14.82689 36195 ft 421 kts 306°
2026-05-04 22:16 61.00663 -14.92327 36195 ft 421 kts 306°
2026-05-04 22:17 61.04183 -15.01975 36194 ft 421 kts 306°
2026-05-04 22:17 61.07674 -15.11589 36194 ft 421 kts 306°
2026-05-04 22:18 61.11184 -15.21285 36202 ft 421 kts 306°
2026-05-04 22:18 61.14689 -15.30998 36210 ft 421 kts 306°
2026-05-04 22:19 61.18185 -15.40741 36211 ft 421 kts 306°
2026-05-04 22:19 61.21669 -15.50496 36211 ft 421 kts 306°
2026-05-04 22:20 61.25147 -15.60273 36211 ft 421 kts 306°
2026-05-04 22:20 61.28616 -15.70065 36211 ft 421 kts 306°
2026-05-04 22:21 61.32079 -15.79878 36211 ft 420 kts 306°
2026-05-04 22:21 61.35531 -15.89703 36211 ft 420 kts 306°
2026-05-04 22:22 61.38958 -15.99493 36211 ft 421 kts 305°
2026-05-04 22:22 61.42404 -16.09384 36211 ft 421 kts 305°
2026-05-04 22:23 61.45837 -16.19280 36211 ft 420 kts 305°
2026-05-04 22:23 61.48684 -16.27522 36210 ft 420 kts 305°
2026-05-04 22:24 61.52100 -16.37445 36211 ft 420 kts 305°
2026-05-04 22:24 61.55515 -16.47410 36211 ft 421 kts 305°
2026-05-04 22:25 61.58923 -16.57403 36211 ft 420 kts 305°
2026-05-04 22:25 61.62319 -16.67397 36219 ft 420 kts 305°
2026-05-04 22:26 61.65716 -16.77433 36220 ft 421 kts 305°
2026-05-04 22:26 61.69102 -16.87485 36220 ft 421 kts 304°
2026-05-04 22:27 61.72464 -16.97514 36220 ft 421 kts 304°
2026-05-04 22:27 61.75838 -17.07625 36220 ft 421 kts 304°
2026-05-04 22:28 61.79206 -17.17757 36220 ft 421 kts 304°
2026-05-04 22:28 61.82562 -17.27899 36220 ft 421 kts 304°
2026-05-04 22:29 61.85914 -17.38080 36219 ft 421 kts 304°
2026-05-04 22:29 61.89257 -17.48272 36220 ft 421 kts 304°
2026-05-04 22:30 61.92594 -17.58487 36220 ft 421 kts 304°
2026-05-04 22:30 61.95927 -17.68736 36220 ft 421 kts 304°
2026-05-04 22:31 61.99225 -17.78927 36229 ft 421 kts 304°
2026-05-04 22:31 62.02535 -17.89200 36229 ft 421 kts 304°
2026-05-04 22:32 62.05840 -17.99502 36229 ft 421 kts 304°
2026-05-04 22:32 62.09135 -18.09822 36230 ft 421 kts 303°
2026-05-04 22:33 62.12428 -18.20176 36238 ft 421 kts 303°
2026-05-04 22:33 62.15707 -18.30537 36239 ft 421 kts 303°
2026-05-04 22:34 62.18983 -18.40945 36239 ft 421 kts 303°
2026-05-04 22:34 62.22226 -18.51289 36239 ft 421 kts 303°
2026-05-04 22:35 62.25480 -18.61709 36239 ft 421 kts 303°
2026-05-04 22:35 62.28728 -18.72161 36238 ft 421 kts 303°
2026-05-04 22:36 62.31966 -18.82631 36240 ft 421 kts 303°
2026-05-04 22:36 62.35196 -18.93120 36238 ft 420 kts 303°
2026-05-04 22:37 62.38414 -19.03618 36238 ft 420 kts 303°
2026-05-04 22:37 62.41623 -19.14141 36238 ft 420 kts 303°
2026-05-04 22:38 62.44828 -19.24691 36238 ft 420 kts 302°
2026-05-04 22:38 62.48028 -19.35278 36239 ft 420 kts 302°
2026-05-04 22:39 62.51219 -19.45883 36239 ft 420 kts 302°
2026-05-04 22:39 62.54545 -19.56184 36241 ft 420 kts 308°
2026-05-04 22:40 62.58274 -19.65955 36238 ft 421 kts 309°
2026-05-04 22:40 62.62043 -19.75681 36239 ft 421 kts 309°
2026-05-04 22:41 62.65817 -19.85439 36238 ft 421 kts 309°
2026-05-04 22:41 62.69578 -19.95200 36238 ft 421 kts 309°
2026-05-04 22:42 62.73312 -20.04922 36150 ft 422 kts 309°
2026-05-04 22:42 62.75191 -20.09837 35433 ft 420 kts 309°
2026-05-04 22:42 62.77059 -20.14732 34237 ft 421 kts 308°
2026-05-04 22:42 62.78939 -20.19671 33044 ft 425 kts 308°
2026-05-04 22:43 62.80834 -20.24661 32191 ft 428 kts 308°
2026-05-04 22:43 62.82736 -20.29676 31375 ft 428 kts 308°
2026-05-04 22:43 62.84634 -20.34694 30516 ft 428 kts 308°
2026-05-04 22:43 62.86536 -20.39735 29633 ft 430 kts 308°
2026-05-04 22:44 62.88440 -20.44790 28703 ft 431 kts 308°
2026-05-04 22:44 62.90354 -20.49882 27716 ft 434 kts 308°
2026-05-04 22:44 62.92274 -20.55003 26722 ft 435 kts 308°
2026-05-04 22:44 62.94196 -20.60141 25669 ft 437 kts 308°
2026-05-04 22:45 62.96129 -20.65319 24562 ft 439 kts 308°
2026-05-04 22:45 62.99993 -20.75703 22686 ft 435 kts 308°
2026-05-04 22:45 63.01886 -20.80811 21932 ft 427 kts 308°
2026-05-04 22:46 63.03750 -20.85850 21195 ft 420 kts 308°
2026-05-04 22:46 63.05576 -20.90799 20590 ft 411 kts 308°
2026-05-04 22:46 63.07356 -20.95636 19992 ft 401 kts 308°
2026-05-04 22:46 63.09076 -21.00317 19408 ft 393 kts 308°
2026-05-04 22:47 63.10781 -21.04967 18807 ft 387 kts 308°
2026-05-04 22:47 63.12472 -21.09590 18328 ft 389 kts 308°
2026-05-04 22:47 63.14169 -21.14238 17675 ft 386 kts 308°
2026-05-04 22:47 63.15837 -21.18823 17097 ft 378 kts 308°
2026-05-04 22:48 63.17467 -21.23310 16536 ft 371 kts 308°
2026-05-04 22:48 63.19166 -21.27528 16009 ft 363 kts 315°
2026-05-04 22:48 63.21027 -21.31234 15503 ft 358 kts 318°
2026-05-04 22:48 63.22926 -21.34798 14948 ft 359 kts 319°
2026-05-04 22:49 63.24832 -21.38353 14391 ft 357 kts 319°
2026-05-04 22:49 63.26720 -21.41879 13859 ft 354 kts 319°
2026-05-04 22:49 63.28600 -21.45401 13329 ft 352 kts 319°
2026-05-04 22:49 63.30466 -21.48903 12766 ft 350 kts 319°
2026-05-04 22:50 63.32319 -21.52391 12240 ft 347 kts 319°
2026-05-04 22:50 63.34135 -21.55818 11716 ft 345 kts 319°
2026-05-04 22:50 63.35975 -21.59296 11307 ft 337 kts 319°
2026-05-04 22:50 63.37712 -21.62585 11232 ft 317 kts 319°
2026-05-04 22:51 63.39321 -21.65636 11156 ft 299 kts 319°
2026-05-04 22:51 63.40864 -21.68569 10999 ft 285 kts 319°
2026-05-04 22:51 63.42332 -21.71364 10905 ft 270 kts 319°
2026-05-04 22:51 63.43736 -21.74040 10728 ft 261 kts 319°
2026-05-04 22:52 63.45116 -21.76677 10306 ft 263 kts 319°
2026-05-04 22:52 63.46506 -21.79334 9954 ft 262 kts 319°
2026-05-04 22:52 63.47889 -21.81982 9647 ft 262 kts 319°
2026-05-04 22:52 63.49298 -21.84681 9335 ft 271 kts 319°
2026-05-04 22:53 63.50738 -21.87444 9005 ft 273 kts 319°
2026-05-04 22:53 63.52178 -21.90211 8677 ft 272 kts 319°
2026-05-04 22:53 63.53610 -21.92967 8357 ft 271 kts 319°
2026-05-04 22:53 63.55041 -21.95722 8036 ft 270 kts 319°
2026-05-04 22:54 63.56461 -21.98464 7819 ft 267 kts 319°
2026-05-04 22:54 63.57864 -22.01219 7704 ft 269 kts 316°
2026-05-04 22:54 63.59146 -22.04252 7510 ft 268 kts 312°
2026-05-04 22:54 63.60382 -22.07368 7269 ft 264 kts 311°
2026-05-04 22:55 63.61560 -22.10397 7072 ft 250 kts 311°
2026-05-04 22:55 63.62689 -22.13340 6672 ft 247 kts 310°
2026-05-04 22:55 63.63801 -22.16265 6299 ft 244 kts 311°
2026-05-04 22:55 63.64889 -22.19161 5995 ft 241 kts 310°
2026-05-04 22:56 63.65975 -22.22035 5683 ft 241 kts 311°
2026-05-04 22:56 63.67054 -22.24887 5376 ft 239 kts 311°
2026-05-04 22:56 63.68122 -22.27711 5077 ft 239 kts 311°
2026-05-04 22:56 63.69194 -22.30552 4773 ft 237 kts 311°
2026-05-04 22:57 63.70262 -22.33389 4471 ft 236 kts 311°
2026-05-04 22:57 63.71324 -22.36215 4171 ft 235 kts 311°
2026-05-04 22:57 63.72380 -22.39028 3891 ft 232 kts 311°
2026-05-04 22:57 63.73387 -22.41717 3781 ft 217 kts 311°
2026-05-04 22:58 63.74357 -22.44312 3375 ft 216 kts 311°
2026-05-04 22:58 63.75320 -22.46887 3047 ft 211 kts 311°
2026-05-04 22:58 63.76227 -22.49321 2929 ft 194 kts 311°
2026-05-04 22:58 63.77063 -22.51565 2797 ft 178 kts 310°
2026-05-04 22:59 63.77857 -22.53697 2763 ft 178 kts 310°
2026-05-04 22:59 63.78653 -22.55836 2733 ft 178 kts 310°
2026-05-04 22:59 63.79457 -22.57959 2580 ft 173 kts 313°
2026-05-04 22:59 63.80376 -22.59574 2506 ft 166 kts 337°
2026-05-04 23:00 63.81470 -22.60296 2502 ft 167 kts 352°
2026-05-04 23:00 63.82626 -22.60482 2497 ft 167 kts 359°
2026-05-04 23:00 63.83793 -22.60515 2497 ft 168 kts 360°
2026-05-04 23:00 63.84959 -22.60522 2410 ft 167 kts 360°
2026-05-04 23:01 63.86113 -22.60538 2197 ft 166 kts 360°
2026-05-04 23:01 63.87264 -22.60542 1976 ft 161 kts
2026-05-04 23:01 63.88335 -22.60543 1747 ft 147 kts
2026-05-04 23:01 63.89321 -22.60544 1565 ft 139 kts
2026-05-04 23:02 63.90292 -22.60542 1369 ft 139 kts
2026-05-04 23:02 63.91260 -22.60516 1230 ft 140 kts 360°
2026-05-04 23:02 63.92236 -22.60558 1038 ft 141 kts
2026-05-04 23:02 63.93220 -22.60542 837 ft 141 kts
2026-05-04 23:03 63.94183 -22.60563 663 ft 140 kts 359°
2026-05-04 23:03 63.95151 -22.60563 454 ft 140 kts
2026-05-04 23:03 63.96118 -22.60548 265 ft 139 kts
2026-05-04 23:03 63.97062 -22.60546 166 ft 126 kts 359°
2026-05-04 23:04 63.97779 -22.60542 175 ft 77 kts
2026-05-04 23:04 63.98194 -22.60539 175 ft 53 kts
2026-05-04 23:04 63.98546 -22.60535 175 ft 48 kts 360°
2026-05-04 23:04 63.98858 -22.60534 175 ft 42 kts
2026-05-04 23:05 63.99092 -22.60537 177 ft 18 kts
2026-05-04 23:05 63.99174 -22.60591 175 ft 9 kts 293°
2026-05-04 23:05 63.99173 -22.60779 168 ft 15 kts 269°
2026-05-04 23:05 63.99174 -22.61064 161 ft 19 kts 269°
2026-05-04 23:06 63.99173 -22.61313 156 ft 18 kts 270°
2026-05-04 23:06 63.99173 -22.61603 150 ft 18 kts 269°
2026-05-04 23:06 63.99172 -22.61927 143 ft 22 kts 270°
2026-05-04 23:06 63.99172 -22.62284 143 ft 23 kts 270°
2026-05-04 23:07 63.99172 -22.62571 143 ft 5 kts 270°
2026-05-04 23:07 63.99175 -22.62653 143 ft 3 kts 290°
2026-05-04 23:07 63.99191 -22.62673 143 ft 4 kts 343°
2026-05-04 23:07 63.99212 -22.62677 143 ft 2 kts
2026-05-04 23:08 63.99234 -22.62669 143 ft 6 kts 24°
2026-05-04 23:08 63.99258 -22.62612 143 ft 4 kts 50°
2026-05-04 23:08 63.99268 -22.62584 143 ft 1 kts 51°
2026-05-04 23:08 63.99271 -22.62578 143 ft 0 kts 51°
2026-05-04 23:09 63.99272 -22.62574 143 ft 0 kts 51°